Stephen Scott — WCW8842 — position and weather

sailwx.info

Track history (hours):
 
Tides and Currents Weather Stations Pressure Air Temp Water Temp Dewpoint Dewpoint Depression Visibility Wind Speed Wind Dir Waves Ship Positions

Stephen Scott

Owner: H A REINAUER INC, STATEN ISLAND, NY. More information available from US FCC via Universal Licensing System and Coast Guard Vessel Documentation Center.

Last reported at 2014-Oct-25 12:26 UTC. Time now 2014-Oct-25 16:00 UTC.
Position N 39°27' W 074°11'.

Length 30 m; draft 2.5 m.

Type: Towing. MMSI: 366245490.

Date/timePositionNaut miles runAvg speedWind from/ knotsBaromVisibWave heightAir tempDewpointWater temp
2014-Oct-25 12:26N 39°27' W 074°11'6 6.7
2014-Oct-25 11:33N 39°32' W 074°07'7 6.7
2014-Oct-25 10:33N 39°38' W 074°03'7 6.7
2014-Oct-25 09:33N 39°44' W 073°59'7 6.6
2014-Oct-25 08:33N 39°51' W 073°58'7 6.6
2014-Oct-25 07:33N 39°57' W 073°57'7 6.8
2014-Oct-25 06:31N 40°04' W 073°56'7 6.9
2014-Oct-25 05:33N 40°11' W 073°55'7 7.3
2014-Oct-25 04:33N 40°18' W 073°55'8 7.6
2014-Oct-25 03:29N 40°26' W 073°54'6 6.3
2014-Oct-25 02:33N 40°31' W 073°59'5 5.2
2014-Oct-25 01:33N 40°35' W 074°02'5 4.7
2014-Oct-25 00:33N 40°39' W 074°06'6 5.7
2014-Oct-24 23:33N 40°36' W 074°12'4 4.0
2014-Oct-24 22:30N 40°33' W 074°15'0 0.2
2014-Oct-24 20:24N 40°33' W 074°15'0 0.0
2014-Oct-24 18:25N 40°33' W 074°15'0 0.0
2014-Oct-24 16:08N 40°33' W 074°15'0 0.0
2014-Oct-24 14:27N 40°33' W 074°15'0 0.0
2014-Oct-24 13:26N 40°33' W 074°15'0 0.0
2014-Oct-24 12:20N 40°33' W 074°15'0 0.0
2014-Oct-24 09:09N 40°33' W 074°15'5 1.3
2014-Oct-24 05:33N 40°37' W 074°12'7 7.5
2014-Oct-24 04:33N 40°40' W 074°03'2 1.7
2014-Oct-24 03:33N 40°40' W 074°01'0 0.1
2014-Oct-24 02:33N 40°40' W 074°01'0 0.0
2014-Oct-24 01:33N 40°40' W 074°01'0 0.0
2014-Oct-24 00:33N 40°40' W 074°01'1 0.9
2014-Oct-23 23:33N 40°40' W 074°02'5 4.0
2014-Oct-23 22:24N 40°38' W 074°08'8 2.6
2014-Oct-23 19:28N 40°33' W 074°15'0 0.1
2014-Oct-23 17:32N 40°33' W 074°15'0 0.1
2014-Oct-23 12:31N 40°33' W 074°15'0 0.0
2014-Oct-23 10:30N 40°33' W 074°15'0 0.0
2014-Oct-23 08:28N 40°33' W 074°15'0 0.0
2014-Oct-23 02:05N 40°33' W 074°15'0 0.0
2014-Oct-23 01:23N 40°33' W 074°15'0 0.0
2014-Oct-23 00:27N 40°33' W 074°15'0 0.1
2014-Oct-22 22:13N 40°33' W 074°15'5 6.8
2014-Oct-22 21:33N 40°37' W 074°12'8 7.7
2014-Oct-22 20:33N 40°40' W 074°03'1 1.5
2014-Oct-22 19:33N 40°40' W 074°01'0 0.0
2014-Oct-22 18:33N 40°40' W 074°01'0 0.0
2014-Oct-22 17:33N 40°40' W 074°01'0 0.0
2014-Oct-22 16:33N 40°40' W 074°01'0 0.0
2014-Oct-22 15:33N 40°40' W 074°01'0 0.0
2014-Oct-22 14:33N 40°40' W 074°01'0 0.0
2014-Oct-22 13:33N 40°40' W 074°01'0 0.0
2014-Oct-22 12:33N 40°40' W 074°01'6 5.8
2014-Oct-22 11:33N 40°40' W 074°09'0 0.2
2014-Oct-22 10:33N 40°40' W 074°09'4 4.4
2014-Oct-22 09:33N 40°38' W 074°03'5 1.1
2014-Oct-22 04:28N 40°39' W 074°10'7 3.3
2014-Oct-22 02:24N 40°33' W 074°15'0 0.0
2014-Oct-22 00:24N 40°33' W 074°15'0 0.0
2014-Oct-21 23:28N 40°33' W 074°15'0 0.0
2014-Oct-21 22:23N 40°33' W 074°15'2 0.3
2014-Oct-21 16:19N 40°31' W 074°15'2 2.0
2014-Oct-21 15:33N 40°33' W 074°15'0 0.0
2014-Oct-21 14:28N 40°33' W 074°15'0 0.0
2014-Oct-21 13:32N 40°33' W 074°15'0 0.0
2014-Oct-21 12:28N 40°33' W 074°15'0 0.0
2014-Oct-21 11:29N 40°33' W 074°15'0 0.0
2014-Oct-21 10:33N 40°33' W 074°15'0 0.0
2014-Oct-21 09:28N 40°33' W 074°15'0 0.0
2014-Oct-21 08:33N 40°33' W 074°15'0 0.2
2014-Oct-21 06:30N 40°33' W 074°15'4 4.1
2014-Oct-21 05:33N 40°36' W 074°12'0 0.0
2014-Oct-21 04:30N 40°36' W 074°12'0 0.0
2014-Oct-21 03:30N 40°36' W 074°12'1 1.4
2014-Oct-21 02:32N 40°37' W 074°12'1 0.3
2014-Oct-20 23:33N 40°36' W 074°12'2 2.3
2014-Oct-20 22:33N 40°39' W 074°11'8 8.0
2014-Oct-20 21:33N 40°40' W 074°01'0 0.0
2014-Oct-20 20:33N 40°40' W 074°01'0 0.0
2014-Oct-20 19:33N 40°40' W 074°01'0 0.2
2014-Oct-20 18:33N 40°40' W 074°01'1 1.0
2014-Oct-20 17:33N 40°40' W 074°02'0 0.1
2014-Oct-20 16:33N 40°40' W 074°02'0 0.0
2014-Oct-20 15:33N 40°40' W 074°02'0 0.0
2014-Oct-20 14:33N 40°40' W 074°02'0 0.1
2014-Oct-20 13:33N 40°40' W 074°02'9 8.8
2014-Oct-20 12:33N 40°47' W 073°55'7 7.4
2014-Oct-20 11:33N 40°50' W 073°46'13 9.4
2014-Oct-20 10:12N 40°57' W 073°33'6 9.6
2014-Oct-20 09:33N 40°60' W 073°25'9 9.4
2014-Oct-20 08:33N 41°03' W 073°14'9 8.9
2014-Oct-20 07:33N 41°07' W 073°03'9 8.2
2014-Oct-20 06:26N 41°14' W 072°55'4 0.6
2014-Oct-20 00:03N 41°18' W 072°54'0 0.0
2014-Oct-19 21:08N 41°18' W 072°54'0 0.2
2014-Oct-19 18:33N 41°17' W 072°55'7 6.5
2014-Oct-19 17:33N 41°11' W 072°56'9 8.9
2014-Oct-19 16:32N 41°06' W 073°05'9 8.7
2014-Oct-19 15:33N 41°04' W 073°17'19 8.6
2014-Oct-19 13:22N 40°57' W 073°39'14 7.1
2014-Oct-19 11:28N 40°48' W 073°54'5 5.8
2014-Oct-19 10:33N 40°44' W 073°58'6 5.7
2014-Oct-19 09:33N 40°40' W 074°03'0 0.1
2014-Oct-19 08:33N 40°40' W 074°03'0 0.1
2014-Oct-19 07:33N 40°40' W 074°03'0 0.1
2014-Oct-19 06:33N 40°40' W 074°03'0 0.0
2014-Oct-19 05:33N 40°40' W 074°03'0 0.0
2014-Oct-19 04:33N 40°40' W 074°03'3 3.0
2014-Oct-19 03:33N 40°39' W 074°07'1 1.0
2014-Oct-19 02:33N 40°38' W 074°08'3 3.3
2014-Oct-19 01:32N 40°38' W 074°12'3 2.6
2014-Oct-19 00:33N 40°38' W 074°09'3 2.3
2014-Oct-18 23:28N 40°38' W 074°12'7 1.0
2014-Oct-18 16:29N 40°40' W 074°03'2 1.7
2014-Oct-18 15:33N 40°40' W 074°01'0 0.1
2014-Oct-18 14:33N 40°40' W 074°01'0 0.1
2014-Oct-18 13:31N 40°40' W 074°01'4 4.6
2014-Oct-18 12:33N 40°39' W 074°07'0 0.0
2014-Oct-18 11:30N 40°39' W 074°07'0 0.0
2014-Oct-18 10:13N 40°39' W 074°07'0 0.3
2014-Oct-18 09:26N 40°39' W 074°06'3 3.3
2014-Oct-18 08:33N 40°39' W 074°03'0 0.0
2014-Oct-18 07:33N 40°39' W 074°03'0 0.0
2014-Oct-18 06:33N 40°39' W 074°03'0 0.0
2014-Oct-18 05:33N 40°39' W 074°03'0 0.1
2014-Oct-18 04:33N 40°39' W 074°03'0 0.0
2014-Oct-18 03:33N 40°39' W 074°03'0 0.0
2014-Oct-18 02:33N 40°39' W 074°03'0 0.1
2014-Oct-18 01:33N 40°39' W 074°03'0 0.0
2014-Oct-18 00:33N 40°39' W 074°03'0 0.1
2014-Oct-17 23:33N 40°39' W 074°03'0 0.1
2014-Oct-17 22:33N 40°39' W 074°03'0 0.0
2014-Oct-17 21:33N 40°39' W 074°03'0 0.0
2014-Oct-17 20:33N 40°39' W 074°03'0 0.0
2014-Oct-17 19:33N 40°39' W 074°03'0 0.0
2014-Oct-17 18:33N 40°39' W 074°03'3 3.2
2014-Oct-17 17:30N 40°36' W 074°02'3 3.4
2014-Oct-17 16:33N 40°32' W 074°01'7 6.9
2014-Oct-17 15:33N 40°29' W 073°54'8 7.8
2014-Oct-17 14:28N 40°21' W 073°54'8 8.3
2014-Oct-17 13:28N 40°12' W 073°55'8 8.3
2014-Oct-17 12:28N 40°04' W 073°56'8 8.2
2014-Oct-17 11:33N 39°56' W 073°57'8 8.2
2014-Oct-17 10:33N 39°48' W 073°58'8 7.9
2014-Oct-17 09:33N 39°41' W 074°01'68 5.1
2014-Oct-16 20:11N 39°20' W 075°25'4 6.4
2014-Oct-16 19:33N 39°23' W 075°29'42 5.7
2014-Oct-16 12:13N 39°09' W 076°19'6 9.0
2014-Oct-16 11:30N 39°11' W 076°27'6 6.3
2014-Oct-16 10:33N 39°14' W 076°34'3 2.9
2014-Oct-16 09:33N 39°17' W 076°36'0 0.0
2014-Oct-16 08:33N 39°17' W 076°36'0 0.0
2014-Oct-16 07:33N 39°17' W 076°36'0 0.0
2014-Oct-16 06:33N 39°17' W 076°36'0 0.0
2014-Oct-16 05:33N 39°17' W 076°36'0 0.0
2014-Oct-16 04:33N 39°17' W 076°36'0 0.0
2014-Oct-16 03:33N 39°17' W 076°36'0 0.0
2014-Oct-16 02:33N 39°17' W 076°36'0 0.0
2014-Oct-16 01:33N 39°17' W 076°36'0 0.0
2014-Oct-16 00:33N 39°17' W 076°36'0 0.0
2014-Oct-15 23:33N 39°17' W 076°36'0 0.0
2014-Oct-15 22:33N 39°17' W 076°36'0 0.0
2014-Oct-15 21:33N 39°17' W 076°36'0 0.0
2014-Oct-15 20:33N 39°17' W 076°36'0 0.0
2014-Oct-15 19:33N 39°17' W 076°36'0 0.0
2014-Oct-15 18:33N 39°17' W 076°36'0 0.0
2014-Oct-15 17:33N 39°17' W 076°36'0 0.0
2014-Oct-15 16:33N 39°17' W 076°36'0 0.0
2014-Oct-15 15:33N 39°17' W 076°36'0 0.0
2014-Oct-15 14:33N 39°17' W 076°36'0 0.0
2014-Oct-15 13:33N 39°17' W 076°36'0 0.0
2014-Oct-15 12:33N 39°17' W 076°36'  
Track history (hours):
 
Tides and Currents Weather Stations Pressure Air Temp Water Temp Dewpoint Dewpoint Depression Visibility Wind Speed Wind Dir Waves Ship Positions

Stephen Scott

Owner: H A REINAUER INC, STATEN ISLAND, NY. More information available from US FCC via Universal Licensing System and Coast Guard Vessel Documentation Center.

Last reported at 2014-Oct-25 12:26 UTC. Time now 2014-Oct-25 16:00 UTC.
Position N 39°27' W 074°11'.

Length 30 m; draft 2.5 m.

Type: Towing. MMSI: 366245490.

Date/timePositionNaut miles runAvg speedWind from/ knotsBaromVisibWave heightAir tempDewpointWater temp
2014-Oct-25 12:26N 39°27' W 074°11'6 6.7
2014-Oct-25 11:33N 39°32' W 074°07'7 6.7
2014-Oct-25 10:33N 39°38' W 074°03'7 6.7
2014-Oct-25 09:33N 39°44' W 073°59'7 6.6
2014-Oct-25 08:33N 39°51' W 073°58'7 6.6
2014-Oct-25 07:33N 39°57' W 073°57'7 6.8
2014-Oct-25 06:31N 40°04' W 073°56'7 6.9
2014-Oct-25 05:33N 40°11' W 073°55'7 7.3
2014-Oct-25 04:33N 40°18' W 073°55'8 7.6
2014-Oct-25 03:29N 40°26' W 073°54'6 6.3
2014-Oct-25 02:33N 40°31' W 073°59'5 5.2
2014-Oct-25 01:33N 40°35' W 074°02'5 4.7
2014-Oct-25 00:33N 40°39' W 074°06'6 5.7
2014-Oct-24 23:33N 40°36' W 074°12'4 4.0
2014-Oct-24 22:30N 40°33' W 074°15'0 0.2
2014-Oct-24 20:24N 40°33' W 074°15'0 0.0
2014-Oct-24 18:25N 40°33' W 074°15'0 0.0
2014-Oct-24 16:08N 40°33' W 074°15'0 0.0
2014-Oct-24 14:27N 40°33' W 074°15'0 0.0
2014-Oct-24 13:26N 40°33' W 074°15'0 0.0
2014-Oct-24 12:20N 40°33' W 074°15'0 0.0
2014-Oct-24 09:09N 40°33' W 074°15'5 1.3
2014-Oct-24 05:33N 40°37' W 074°12'7 7.5
2014-Oct-24 04:33N 40°40' W 074°03'2 1.7
2014-Oct-24 03:33N 40°40' W 074°01'0 0.1
2014-Oct-24 02:33N 40°40' W 074°01'0 0.0
2014-Oct-24 01:33N 40°40' W 074°01'0 0.0
2014-Oct-24 00:33N 40°40' W 074°01'1 0.9
2014-Oct-23 23:33N 40°40' W 074°02'5 4.0
2014-Oct-23 22:24N 40°38' W 074°08'8 2.6
2014-Oct-23 19:28N 40°33' W 074°15'0 0.1
2014-Oct-23 17:32N 40°33' W 074°15'0 0.1
2014-Oct-23 12:31N 40°33' W 074°15'0 0.0
2014-Oct-23 10:30N 40°33' W 074°15'0 0.0
2014-Oct-23 08:28N 40°33' W 074°15'0 0.0
2014-Oct-23 02:05N 40°33' W 074°15'0 0.0
2014-Oct-23 01:23N 40°33' W 074°15'0 0.0
2014-Oct-23 00:27N 40°33' W 074°15'0 0.1
2014-Oct-22 22:13N 40°33' W 074°15'5 6.8
2014-Oct-22 21:33N 40°37' W 074°12'8 7.7
2014-Oct-22 20:33N 40°40' W 074°03'1 1.5
2014-Oct-22 19:33N 40°40' W 074°01'0 0.0
2014-Oct-22 18:33N 40°40' W 074°01'0 0.0
2014-Oct-22 17:33N 40°40' W 074°01'0 0.0
2014-Oct-22 16:33N 40°40' W 074°01'0 0.0
2014-Oct-22 15:33N 40°40' W 074°01'0 0.0
2014-Oct-22 14:33N 40°40' W 074°01'0 0.0
2014-Oct-22 13:33N 40°40' W 074°01'0 0.0
2014-Oct-22 12:33N 40°40' W 074°01'6 5.8
2014-Oct-22 11:33N 40°40' W 074°09'0 0.2
2014-Oct-22 10:33N 40°40' W 074°09'4 4.4
2014-Oct-22 09:33N 40°38' W 074°03'5 1.1
2014-Oct-22 04:28N 40°39' W 074°10'7 3.3
2014-Oct-22 02:24N 40°33' W 074°15'0 0.0
2014-Oct-22 00:24N 40°33' W 074°15'0 0.0
2014-Oct-21 23:28N 40°33' W 074°15'0 0.0
2014-Oct-21 22:23N 40°33' W 074°15'2 0.3
2014-Oct-21 16:19N 40°31' W 074°15'2 2.0
2014-Oct-21 15:33N 40°33' W 074°15'0 0.0
2014-Oct-21 14:28N 40°33' W 074°15'0 0.0
2014-Oct-21 13:32N 40°33' W 074°15'0 0.0
2014-Oct-21 12:28N 40°33' W 074°15'0 0.0
2014-Oct-21 11:29N 40°33' W 074°15'0 0.0
2014-Oct-21 10:33N 40°33' W 074°15'0 0.0
2014-Oct-21 09:28N 40°33' W 074°15'0 0.0
2014-Oct-21 08:33N 40°33' W 074°15'0 0.2
2014-Oct-21 06:30N 40°33' W 074°15'4 4.1
2014-Oct-21 05:33N 40°36' W 074°12'0 0.0
2014-Oct-21 04:30N 40°36' W 074°12'0 0.0
2014-Oct-21 03:30N 40°36' W 074°12'1 1.4
2014-Oct-21 02:32N 40°37' W 074°12'1 0.3
2014-Oct-20 23:33N 40°36' W 074°12'2 2.3
2014-Oct-20 22:33N 40°39' W 074°11'8 8.0
2014-Oct-20 21:33N 40°40' W 074°01'0 0.0
2014-Oct-20 20:33N 40°40' W 074°01'0 0.0
2014-Oct-20 19:33N 40°40' W 074°01'0 0.2
2014-Oct-20 18:33N 40°40' W 074°01'1 1.0
2014-Oct-20 17:33N 40°40' W 074°02'0 0.1
2014-Oct-20 16:33N 40°40' W 074°02'0 0.0
2014-Oct-20 15:33N 40°40' W 074°02'0 0.0
2014-Oct-20 14:33N 40°40' W 074°02'0 0.1
2014-Oct-20 13:33N 40°40' W 074°02'9 8.8
2014-Oct-20 12:33N 40°47' W 073°55'7 7.4
2014-Oct-20 11:33N 40°50' W 073°46'13 9.4
2014-Oct-20 10:12N 40°57' W 073°33'6 9.6
2014-Oct-20 09:33N 40°60' W 073°25'9 9.4
2014-Oct-20 08:33N 41°03' W 073°14'9 8.9
2014-Oct-20 07:33N 41°07' W 073°03'9 8.2
2014-Oct-20 06:26N 41°14' W 072°55'4 0.6
2014-Oct-20 00:03N 41°18' W 072°54'0 0.0
2014-Oct-19 21:08N 41°18' W 072°54'0 0.2
2014-Oct-19 18:33N 41°17' W 072°55'7 6.5
2014-Oct-19 17:33N 41°11' W 072°56'9 8.9
2014-Oct-19 16:32N 41°06' W 073°05'9 8.7
2014-Oct-19 15:33N 41°04' W 073°17'19 8.6
2014-Oct-19 13:22N 40°57' W 073°39'14 7.1
2014-Oct-19 11:28N 40°48' W 073°54'5 5.8
2014-Oct-19 10:33N 40°44' W 073°58'6 5.7
2014-Oct-19 09:33N 40°40' W 074°03'0 0.1
2014-Oct-19 08:33N 40°40' W 074°03'0 0.1
2014-Oct-19 07:33N 40°40' W 074°03'0 0.1
2014-Oct-19 06:33N 40°40' W 074°03'0 0.0
2014-Oct-19 05:33N 40°40' W 074°03'0 0.0
2014-Oct-19 04:33N 40°40' W 074°03'3 3.0
2014-Oct-19 03:33N 40°39' W 074°07'1 1.0
2014-Oct-19 02:33N 40°38' W 074°08'3 3.3
2014-Oct-19 01:32N 40°38' W 074°12'3 2.6
2014-Oct-19 00:33N 40°38' W 074°09'3 2.3
2014-Oct-18 23:28N 40°38' W 074°12'7 1.0
2014-Oct-18 16:29N 40°40' W 074°03'2 1.7
2014-Oct-18 15:33N 40°40' W 074°01'0 0.1
2014-Oct-18 14:33N 40°40' W 074°01'0 0.1
2014-Oct-18 13:31N 40°40' W 074°01'4 4.6
2014-Oct-18 12:33N 40°39' W 074°07'0 0.0
2014-Oct-18 11:30N 40°39' W 074°07'0 0.0
2014-Oct-18 10:13N 40°39' W 074°07'0 0.3
2014-Oct-18 09:26N 40°39' W 074°06'3 3.3
2014-Oct-18 08:33N 40°39' W 074°03'0 0.0
2014-Oct-18 07:33N 40°39' W 074°03'0 0.0
2014-Oct-18 06:33N 40°39' W 074°03'0 0.0
2014-Oct-18 05:33N 40°39' W 074°03'0 0.1
2014-Oct-18 04:33N 40°39' W 074°03'0 0.0
2014-Oct-18 03:33N 40°39' W 074°03'0 0.0
2014-Oct-18 02:33N 40°39' W 074°03'0 0.1
2014-Oct-18 01:33N 40°39' W 074°03'0 0.0
2014-Oct-18 00:33N 40°39' W 074°03'0 0.1
2014-Oct-17 23:33N 40°39' W 074°03'0 0.1
2014-Oct-17 22:33N 40°39' W 074°03'0 0.0
2014-Oct-17 21:33N 40°39' W 074°03'0 0.0
2014-Oct-17 20:33N 40°39' W 074°03'0 0.0
2014-Oct-17 19:33N 40°39' W 074°03'0 0.0
2014-Oct-17 18:33N 40°39' W 074°03'3 3.2
2014-Oct-17 17:30N 40°36' W 074°02'3 3.4
2014-Oct-17 16:33N 40°32' W 074°01'7 6.9
2014-Oct-17 15:33N 40°29' W 073°54'8 7.8
2014-Oct-17 14:28N 40°21' W 073°54'8 8.3
2014-Oct-17 13:28N 40°12' W 073°55'8 8.3
2014-Oct-17 12:28N 40°04' W 073°56'8 8.2
2014-Oct-17 11:33N 39°56' W 073°57'8 8.2
2014-Oct-17 10:33N 39°48' W 073°58'8 7.9
2014-Oct-17 09:33N 39°41' W 074°01'68 5.1
2014-Oct-16 20:11N 39°20' W 075°25'4 6.4
2014-Oct-16 19:33N 39°23' W 075°29'42 5.7
2014-Oct-16 12:13N 39°09' W 076°19'6 9.0
2014-Oct-16 11:30N 39°11' W 076°27'6 6.3
2014-Oct-16 10:33N 39°14' W 076°34'3 2.9
2014-Oct-16 09:33N 39°17' W 076°36'0 0.0
2014-Oct-16 08:33N 39°17' W 076°36'0 0.0
2014-Oct-16 07:33N 39°17' W 076°36'0 0.0
2014-Oct-16 06:33N 39°17' W 076°36'0 0.0
2014-Oct-16 05:33N 39°17' W 076°36'0 0.0
2014-Oct-16 04:33N 39°17' W 076°36'0 0.0
2014-Oct-16 03:33N 39°17' W 076°36'0 0.0
2014-Oct-16 02:33N 39°17' W 076°36'0 0.0
2014-Oct-16 01:33N 39°17' W 076°36'0 0.0
2014-Oct-16 00:33N 39°17' W 076°36'0 0.0
2014-Oct-15 23:33N 39°17' W 076°36'0 0.0
2014-Oct-15 22:33N 39°17' W 076°36'0 0.0
2014-Oct-15 21:33N 39°17' W 076°36'0 0.0
2014-Oct-15 20:33N 39°17' W 076°36'0 0.0
2014-Oct-15 19:33N 39°17' W 076°36'0 0.0
2014-Oct-15 18:33N 39°17' W 076°36'0 0.0
2014-Oct-15 17:33N 39°17' W 076°36'0 0.0
2014-Oct-15 16:33N 39°17' W 076°36'0 0.0
2014-Oct-15 15:33N 39°17' W 076°36'0 0.0
2014-Oct-15 14:33N 39°17' W 076°36'0 0.0
2014-Oct-15 13:33N 39°17' W 076°36'0 0.0
2014-Oct-15 12:33N 39°17' W 076°36'  

Dump ship's entire track history